Date,TemperatureHighF,TemperatureAvgF,TemperatureLowF,DewpointHighF,DewpointAvgF,DewpointLowF,HumidityHigh,HumidityAvg,HumidityLow,PressureMaxIn,PressureMinIn,WindSpeedMaxMPH,WindSpeedAvgMPH,GustSpeedMaxMPH,PrecipitationSumIn
2013-1-1,15.0,5.4,-2.9,2.8,-1.0,-5.8,88,74,56,30.35,30.24,5,1,0,0.00
2013-1-2,23.6,17.9,10.3,16.0,9.8,2.5,82,71,52,30.25,30.12,12,2,0,0.00
2013-1-3,25.3,20.2,9.8,19.7,15.5,4.6,86,82,77,30.29,30.12,8,3,12,0.00
2013-1-4,30.4,20.1,9.0,18.6,13.5,4.3,86,76,60,30.26,30.15,10,3,14,0.00
2013-1-5,34.9,26.1,12.6,31.7,22.2,10.0,92,85,75,30.29,29.92,10,3,14,0.00
2013-1-6,34.4,25.8,21.4,29.5,20.4,15.8,83,80,74,30.24,29.92,13,5,19,0.00
2013-1-7,31.8,30.0,28.6,25.0,24.6,24.0,83,80,75,30.11,30.09,6,2,0,0.00
2013-1-8,37.9,30.6,19.7,31.5,25.5,17.8,95,82,69,30.14,29.96,13,3,19,0.00
2013-1-9,37.6,31.3,22.4,31.1,25.8,18.7,87,80,68,30.50,29.95,12,3,17,0.00
2013-1-10,39.1,30.2,17.3,34.3,25.6,15.1,95,83,68,30.53,29.92,12,2,16,0.24
2013-1-11,45.9,38.3,34.3,44.9,37.4,33.4,98,97,95,29.91,29.64,13,2,17,0.02
2013-1-12,33.2,27.3,21.4,27.4,19.7,15.3,81,73,65,30.05,29.87,12,4,19,0.00
2013-1-13,21.5,16.2,11.8,15.4,9.2,3.9,79,73,66,30.26,29.95,12,5,16,0.00
2013-1-14,17.5,15.3,13.9,10.7,9.7,8.6,80,78,74,30.48,30.46,2,0,0,0.00
2013-1-15,29.3,18.9,10.3,14.9,11.2,7.3,90,73,51,30.50,30.31,11,2,15,0.00
2013-1-17,20.2,13.4,10.3,11.0,8.4,6.8,86,80,67,30.47,30.42,1,0,0,0.00
2013-1-18,41.7,29.4,10.3,32.5,22.4,6.6,87,75,65,30.48,29.86,18,5,25,0.00
2013-1-19,45.5,35.5,14.7,34.0,26.7,2.3,84,71,39,30.00,29.68,21,6,34,0.00
2013-1-20,14.7,9.3,5.6,2.8,-1.2,-2.4,69,61,50,30.37,30.01,18,6,29,0.00
2013-1-21,2.6,-2.5,-4.0,-7.6,-9.5,-10.6,73,68,56,30.38,30.27,11,6,16,0.00
2013-1-22,7.0,-0.1,-8.6,-3.7,-7.7,-11.9,81,67,56,30.47,30.38,9,2,0,0.00
2013-1-23,17.9,10.9,3.0,13.6,3.9,-5.3,88,73,61,30.52,30.17,20,4,27,0.00
2013-1-24,15.7,6.2,-2.1,8.6,-1.5,-7.3,77,69,60,30.75,30.42,14,2,18,0.00
2013-1-25,25.1,18.7,12.8,16.7,11.6,6.1,85,74,61,30.42,30.00,12,5,18,0.00
2013-1-26,24.6,16.1,5.4,13.3,7.3,1.5,84,68,52,30.47,30.28,9,2,12,0.00
2013-1-27,29.4,25.3,22.0,26.3,17.9,12.7,91,73,66,30.40,30.11,12,4,19,0.00
2013-1-29,37.1,34.9,34.3,36.0,33.8,33.3,96,96,95,29.55,29.51,6,3,0,1.96
2013-1-30,34.6,32.4,29.8,33.6,31.4,28.8,97,96,95,29.53,29.36,11,4,14,0.06
2013-1-31,6.1,2.7,0.3,2.6,-2.8,-4.8,85,76,75,30.24,30.10,16,6,18,0.00
2013-2-1,4.9,-0.1,-7.0,1.6,-5.5,-10.4,86,75,62,30.41,30.22,9,3,14,0.00
2013-2-2,9.5,6.0,5.0,3.1,2.0,0.7,87,83,72,30.22,30.14,6,2,0,0.00
2013-2-3,19.4,16.4,13.6,12.1,9.2,7.4,89,73,62,30.11,30.07,11,2,14,0.00
2013-2-4,18.7,13.7,5.9,12.5,8.3,1.9,90,79,57,30.08,30.00,7,1,0,0.00
2013-2-5,28.2,23.1,11.4,23.6,18.3,8.6,88,82,78,30.17,29.96,11,4,0,0.00
2013-2-6,32.9,19.1,-0.8,29.6,14.5,-3.3,93,83,69,30.29,30.12,8,2,13,0.00
2013-2-7,34.6,30.4,21.2,32.9,28.7,19.5,95,93,88,30.14,29.96,11,3,15,0.09
2013-2-8,22.1,21.4,19.9,19.6,18.9,17.6,93,90,85,30.29,30.14,12,6,17,0.00
2013-2-9,29.1,26.0,19.7,25.2,22.9,18.0,94,88,82,30.41,30.12,16,5,18,0.00
2013-2-10,42.3,33.4,21.7,41.2,31.8,19.7,98,94,85,30.12,29.42,17,5,21,0.65
2013-2-11,37.6,30.3,24.7,33.8,25.9,19.7,90,83,76,30.04,29.42,22,7,26,0.00
2013-2-12,24.6,21.8,20.2,19.9,16.5,15.4,83,80,72,30.13,30.04,13,4,13,0.00
2013-2-14,32.4,29.9,26.1,25.0,22.1,19.2,88,73,65,30.05,29.92,12,4,19,0.04
2013-2-15,25.9,19.1,10.9,19.7,9.3,3.4,79,66,47,30.28,30.05,11,5,18,0.00
2013-2-16,17.1,10.3,1.9,5.0,1.8,-1.5,87,69,48,30.27,30.21,11,2,17,0.00
2013-2-17,15.6,2.6,-2.5,6.2,-1.7,-4.9,90,82,54,30.28,30.26,4,0,0,0.00
2013-2-20,22.3,17.9,13.0,10.7,9.4,6.9,77,69,59,30.46,30.43,7,2,0,0.00
2013-2-21,25.2,17.9,8.9,23.5,14.1,4.4,94,85,74,30.51,30.13,9,2,14,0.00
2013-2-22,31.9,26.8,23.2,26.2,23.7,21.2,93,88,78,30.12,29.84,10,2,14,0.00
2013-2-23,30.5,25.6,20.6,22.3,19.9,16.3,87,79,65,30.00,29.89,8,3,14,0.01
2013-2-24,40.1,25.5,14.0,26.2,18.7,12.1,93,77,52,30.19,30.00,4,0,0,0.09
2013-2-25,42.0,27.9,14.1,28.4,21.5,12.0,93,78,56,30.22,30.09,6,1,0,0.01
2013-2-26,34.0,29.9,26.1,27.5,25.6,22.9,89,84,74,30.08,29.77,9,2,17,0.00
2013-2-27,31.7,31.4,31.0,30.1,29.7,29.4,96,94,91,29.85,29.81,12,6,14,0.01
2013-2-28,34.3,30.5,23.4,29.9,26.1,18.5,95,84,72,30.19,29.85,12,5,17,0.00
2013-3-1,28.3,21.2,7.0,19.7,16.4,4.9,94,82,64,30.32,30.18,11,3,14,0.00
2013-3-2,30.4,14.3,3.4,17.0,8.5,0.9,93,78,56,30.34,30.25,8,1,0,0.00
2013-3-3,31.1,14.3,-1.8,14.4,6.5,-4.4,91,73,47,30.25,30.17,3,0,0,0.03
2013-3-4,33.7,23.5,6.2,25.8,16.8,1.9,87,76,60,30.20,30.08,7,2,12,0.00
2013-3-5,29.3,27.2,23.6,27.2,24.9,21.6,94,91,85,30.16,29.94,10,3,17,0.00
2013-3-6,32.3,27.6,23.5,26.2,23.1,18.5,92,83,76,30.38,30.17,12,4,0,0.00
2013-3-7,36.9,22.0,5.3,22.5,15.4,3.0,94,77,52,30.49,30.37,5,0,0,0.05
2013-3-8,39.1,27.9,10.1,28.2,22.3,8.0,95,80,61,30.52,30.32,9,3,16,0.00
2013-3-9,40.7,35.2,29.0,36.0,30.7,24.0,95,84,71,30.32,29.83,12,4,17,0.46
2013-3-10,40.8,37.5,33.9,40.0,36.4,33.1,97,96,92,29.84,29.66,9,2,15,1.18
2013-3-11,33.8,32.0,29.2,33.0,30.4,25.3,97,94,84,29.81,29.59,10,4,17,0.03
2013-3-12,32.1,27.7,24.5,26.1,22.8,17.5,93,82,67,30.07,29.81,14,5,18,0.00
2013-3-13,32.6,24.2,18.2,20.9,12.3,8.7,87,62,38,30.37,30.07,14,5,18,0.00
2013-3-14,37.9,25.9,14.8,27.4,19.4,10.1,92,76,60,30.37,30.12,9,2,13,0.04
2013-3-15,36.7,30.8,25.9,32.6,28.5,24.7,96,91,83,30.10,29.86,6,1,0,0.11
2013-3-16,29.4,25.7,19.9,25.9,20.1,16.9,93,79,69,30.20,29.85,9,4,18,0.00
2013-3-17,34.2,22.8,14.7,21.0,14.4,7.6,85,70,58,30.33,30.06,8,2,12,0.00
2013-3-18,34.8,25.5,16.6,30.3,21.9,10.4,93,86,75,30.05,29.62,14,3,21,0.05
2013-3-19,30.5,19.5,11.4,13.2,9.4,6.0,82,65,45,30.12,29.78,15,7,24,0.00
2013-3-20,20.7,14.2,7.7,8.1,3.5,-1.3,69,62,51,30.16,30.09,14,6,20,0.00
2013-3-21,28.9,17.8,7.4,13.2,7.4,1.7,78,64,46,30.14,30.08,9,2,0,0.00
2013-3-22,36.9,22.3,8.9,18.9,12.3,5.1,87,67,43,30.15,30.09,4,0,0,0.01
2013-3-23,39.9,28.2,15.8,22.8,18.3,12.5,89,68,44,30.20,30.11,3,0,0,0.12
2013-3-24,32.2,29.3,26.5,27.9,24.9,21.7,91,84,74,30.13,29.84,12,3,19,0.04
2013-3-25,34.9,30.0,23.9,26.2,23.1,19.2,83,75,67,30.15,29.89,11,5,18,0.30
2013-3-26,40.7,34.0,29.0,29.1,24.9,22.7,81,69,54,30.30,30.15,8,3,0,0.78
2013-3-27,42.6,35.1,25.9,27.1,23.4,20.0,78,63,43,30.36,30.30,6,1,0,0.81
2013-3-28,46.8,34.0,22.2,24.8,21.5,17.7,85,62,37,30.40,30.33,6,1,0,0.50
2013-3-29,50.6,36.7,21.3,29.4,23.5,18.5,92,61,36,30.38,30.26,4,0,0,0.52
2013-3-30,51.7,42.9,35.0,41.3,32.8,23.2,92,68,55,30.26,29.84,15,4,19,0.00
2013-3-31,46.0,39.1,31.8,40.9,33.1,18.9,95,80,56,29.95,29.75,15,5,22,0.97
2013-4-1,34.7,29.6,24.8,20.8,15.5,11.6,68,56,40,30.25,29.95,14,6,23,0.00
2013-4-2,39.1,30.7,23.0,17.5,15.5,12.7,73,54,35,30.38,30.24,14,3,17,0.00
2013-4-3,44.7,34.4,20.7,21.6,17.5,13.8,81,52,29,30.51,30.31,7,2,12,1.16
2013-4-4,57.7,42.6,30.9,36.9,27.3,19.6,69,55,39,30.31,29.99,15,4,17,0.00
2013-4-5,49.1,39.1,26.0,29.8,26.1,21.9,85,61,38,30.28,30.08,14,2,18,0.00
2013-4-6,60.8,46.4,33.8,49.5,34.6,19.9,92,64,44,30.17,29.57,17,5,26,0.04
2013-4-7,55.7,44.4,36.5,46.1,35.9,31.6,86,73,49,29.98,29.60,12,4,20,0.95
2013-4-8,56.3,44.3,36.9,48.8,40.3,31.6,95,86,74,30.03,29.64,12,3,17,2.38
2013-4-9,41.1,38.4,36.1,39.8,37.3,34.5,97,96,93,30.06,29.90,13,2,18,1.39
2013-4-10,36.8,34.3,31.7,35.5,33.0,30.4,96,95,91,30.13,29.94,14,3,23,0.89
2013-4-11,38.4,36.2,34.7,37.4,35.1,33.3,97,95,93,29.97,29.62,15,4,22,0.67
2013-4-12,40.1,35.4,33.4,37.1,32.9,28.6,98,91,80,29.84,29.56,10,2,14,5.01
2013-4-13,37.2,34.5,30.3,29.7,27.8,25.5,89,76,66,30.04,29.83,15,4,20,6.71
2013-4-14,52.6,39.1,30.0,46.5,34.3,26.1,93,83,69,30.05,29.58,17,4,22,2.25
2013-4-15,61.3,47.9,40.1,50.4,41.8,34.0,98,81,42,29.99,29.60,14,3,21,0.59
2013-4-16,53.5,42.2,32.8,37.2,33.1,29.1,88,72,47,30.33,29.99,13,3,16,3.76
2013-4-17,42.6,39.9,36.5,41.5,36.9,33.1,96,89,79,30.35,29.89,11,2,18,12.48
2013-4-18,59.2,45.8,37.3,58.9,44.1,32.9,99,94,84,29.93,29.34,19,4,25,3.51
2013-4-19,38.1,34.9,31.0,32.8,28.3,22.7,85,77,65,29.96,29.38,18,8,26,0.00
2013-4-20,46.1,35.0,25.8,25.7,19.1,14.9,83,55,30,30.43,29.96,16,3,18,0.00
2013-4-21,52.6,41.7,31.4,35.8,29.4,25.0,81,63,44,30.53,30.29,17,5,23,0.04
2013-4-22,67.1,54.2,43.1,42.3,38.1,34.2,72,56,36,30.30,30.00,12,5,17,0.12
2013-4-23,56.2,43.6,37.1,46.9,36.5,29.4,88,76,55,30.03,29.89,19,5,19,1.20
2013-4-24,53.4,42.6,32.6,30.2,26.7,21.7,81,56,33,30.08,30.00,11,3,18,0.23
2013-4-25,51.2,43.6,37.2,35.1,31.7,27.8,88,64,43,30.31,30.00,18,3,18,0.96
2013-4-26,69.7,54.9,39.1,47.5,38.1,26.0,71,54,42,30.31,30.15,17,6,23,3.47
2013-4-27,64.8,55.9,46.0,50.2,45.8,42.8,90,70,51,30.24,30.02,9,2,12,4.51
2013-4-28,74.2,57.7,39.5,50.1,44.2,37.6,95,65,37,30.02,29.80,6,1,0,0.72
2013-4-29,69.9,61.6,52.9,57.5,52.7,48.1,84,73,58,29.86,29.71,12,4,18,0.12
2013-4-30,86.6,73.0,59.6,61.6,55.3,48.8,92,59,28,29.87,29.66,17,7,24,1.74
2013-5-1,83.3,66.8,53.7,58.9,49.0,-99.9,100,58,42,30.21,29.87,16,3,21,3.50
2013-5-2,54.4,46.0,41.2,54.2,30.9,-99.9,100,73,66,30.31,30.21,13,5,18,0.12
2013-5-3,47.1,43.6,37.5,46.0,5.8,-99.9,96,83,1,30.14,30.05,8,2,13,0.68
2013-5-4,72.9,57.9,46.8,56.7,44.6,-99.9,96,75,45,30.09,30.01,8,1,13,0.18
2013-5-5,75.5,60.2,45.5,54.8,45.9,-99.9,100,65,38,30.08,30.00,6,1,0,0.00
2013-5-6,76.6,61.2,42.7,49.9,42.4,-99.9,100,59,30,30.09,30.00,7,1,0,0.83
2013-5-7,80.0,67.6,53.1,48.8,43.7,-99.9,79,46,24,30.07,29.98,5,1,0,5.65
2013-5-8,81.4,66.6,46.8,51.3,46.6,40.7,90,53,26,30.04,29.94,6,1,15,3.23
2013-5-9,65.9,59.2,47.5,58.9,52.3,-99.9,96,80,53,29.95,29.86,7,1,13,0.92
2013-5-10,52.3,45.3,41.1,47.9,43.0,39.5,96,92,84,30.02,29.89,16,4,17,0.98
2013-5-11,52.7,47.4,41.9,49.5,36.7,-99.9,97,71,39,30.08,29.83,22,6,28,0.00
2013-5-12,54.4,44.2,34.7,52.2,25.0,-99.9,100,53,30,30.16,30.08,15,5,23,0.00
2013-5-13,64.0,49.6,28.2,40.0,32.1,25.7,96,56,27,30.21,29.92,9,2,14,1.59
2013-5-14,89.1,72.0,50.8,61.0,49.8,38.6,65,48,28,29.92,29.52,23,5,39,2.16
2013-5-15,78.1,70.4,58.7,60.6,48.0,40.9,65,46,28,29.84,29.55,13,3,18,4.42
2013-5-16,86.4,67.1,48.1,54.3,46.3,38.4,85,50,27,29.97,29.84,9,1,19,2.11
2013-5-17,61.4,55.6,48.1,54.0,46.5,35.4,94,73,47,30.10,29.97,10,2,14,0.93
2013-5-18,79.5,65.7,50.3,67.7,57.7,46.8,88,76,59,30.08,29.92,8,2,12,2.77
2013-5-19,85.9,72.3,61.6,67.4,62.5,58.0,90,73,49,29.93,29.64,18,5,24,0.05
2013-5-20,82.4,73.0,62.7,64.0,61.4,58.7,96,69,48,29.79,29.58,17,5,22,2.72
2013-5-21,77.0,69.5,58.0,63.3,59.6,55.1,92,72,54,29.68,29.58,12,4,21,1.70
2013-5-22,69.6,61.8,54.3,63.5,58.5,52.6,96,89,76,29.79,29.61,7,1,0,0.76
2013-5-23,63.1,53.5,44.8,52.4,46.0,38.7,96,78,43,30.32,29.79,13,4,18,0.12
2013-5-24,65.1,50.9,33.7,45.5,39.5,32.7,98,68,39,30.49,30.32,7,1,0,0.00
2013-5-25,61.8,53.5,46.7,45.2,38.3,32.8,76,57,44,30.41,30.31,8,2,13,0.00
2013-5-26,67.2,54.4,41.2,50.6,43.2,34.5,81,67,46,30.33,30.17,10,2,15,0.50
2013-5-27,56.2,53.0,50.5,53.2,49.3,42.7,98,88,67,30.18,29.91,10,2,18,0.04
2013-5-28,73.5,61.2,50.9,67.3,58.8,50.4,98,92,78,29.91,29.71,6,1,0,1.38
2013-5-29,82.7,71.0,61.2,69.3,62.6,-99.9,99,81,61,29.90,29.77,15,3,17,3.00
2013-5-30,83.7,72.6,62.0,71.3,46.0,-99.9,98,75,1,29.88,29.68,17,6,24,2.50
2013-5-31,76.5,68.9,63.6,66.8,18.2,-99.9,100,69,1,29.77,29.66,14,5,18,1.54
2013-6-1,78.7,69.5,61.1,65.8,43.2,-99.9,100,77,1,29.69,29.60,14,3,19,1.39
2013-6-2,63.6,54.6,46.3,58.2,-10.5,-99.9,100,84,1,30.04,29.69,15,4,22,0.14
2013-6-3,71.4,57.6,39.6,48.5,-4.2,-99.9,100,59,1,30.13,30.02,5,1,0,1.96
2013-6-4,70.5,61.6,51.8,64.9,33.8,-99.9,100,68,47,30.17,30.07,9,2,12,1.42
2013-6-5,67.0,56.4,49.3,61.9,30.3,-99.9,100,87,1,30.14,29.96,10,2,12,0.61
2013-6-6,60.7,55.9,51.3,55.2,26.1,-99.9,100,82,1,29.99,29.94,6,1,12,0.44
2013-6-7,74.0,59.8,51.8,61.3,39.1,-99.9,100,76,1,30.02,29.92,5,1,0,2.01
2013-6-8,74.5,62.9,51.1,60.2,23.2,-99.9,100,65,1,30.00,29.94,5,1,0,2.97
2013-6-9,80.0,67.5,56.4,68.0,48.1,-99.9,100,70,50,30.01,29.79,12,4,19,5.33
2013-6-10,81.6,70.7,58.0,65.6,47.7,-99.9,97,70,1,29.85,29.76,6,1,0,4.30
2013-6-11,83.4,72.7,60.1,68.2,48.7,-99.9,95,72,1,29.91,29.78,8,1,0,1.53
2013-6-12,79.5,69.6,61.1,71.3,65.7,59.4,97,88,72,29.90,29.60,21,2,21,4.07
2013-6-13,78.0,68.9,57.6,62.3,48.6,-99.9,100,71,1,30.06,29.75,13,3,16,6.85
2013-6-14,77.8,66.6,51.4,62.2,49.6,-99.9,98,71,50,30.16,30.00,7,2,12,2.93
2013-6-15,83.0,69.6,56.8,70.0,58.8,-99.9,96,80,1,30.07,29.80,9,3,14,5.21
2013-6-16,84.1,74.6,63.1,68.1,61.0,52.1,98,67,35,29.90,29.84,9,2,14,2.00
2013-6-17,85.1,73.5,62.5,67.5,53.8,-99.9,100,61,39,29.96,29.85,10,2,21,2.89
2013-6-18,75.7,64.1,54.6,66.4,34.0,-99.9,100,72,42,30.10,29.96,6,1,0,4.13
2013-6-19,80.7,65.6,45.9,56.8,20.9,-99.9,100,64,1,30.16,30.06,9,2,0,1.95
2013-6-20,87.5,74.2,58.4,65.1,41.6,-99.9,100,56,35,30.13,30.02,10,3,15,2.92
2013-6-21,80.6,72.0,65.1,69.2,64.8,60.5,97,79,62,30.08,29.81,27,3,29,7.69
2013-6-22,81.7,71.9,66.4,72.5,58.6,-99.9,96,85,1,30.09,29.89,13,3,23,6.04
2013-6-23,86.8,74.4,64.3,74.2,12.5,-99.9,97,72,1,30.05,29.83,12,4,18,0.78
2013-6-24,81.3,73.4,69.0,70.3,61.7,-99.9,94,80,1,30.00,29.81,10,2,17,3.20
2013-6-25,85.4,73.5,65.4,74.6,33.6,-99.9,97,74,1,29.93,29.78,9,2,13,2.71
2013-6-26,85.1,75.3,65.6,72.4,68.9,-99.9,98,83,60,29.78,29.69,14,2,21,2.88
2013-6-27,87.1,77.8,70.1,73.4,68.9,61.5,98,76,50,29.78,29.67,9,2,19,0.56
2013-6-28,75.8,69.3,64.3,70.4,61.5,-99.9,100,80,60,29.72,29.62,12,3,19,3.72
2013-6-29,73.6,66.6,63.3,65.7,61.3,-99.9,97,87,66,29.84,29.62,12,3,16,1.30
2013-6-30,79.2,67.3,55.3,62.4,55.3,-99.9,89,68,1,30.06,29.84,11,2,18,1.27
2013-7-1,81.2,67.7,52.9,60.8,45.5,-99.9,100,67,38,30.13,30.05,7,1,0,0.47
2013-7-2,78.6,66.0,54.1,69.3,49.5,-99.9,100,66,1,30.13,30.07,7,1,0,0.88
2013-7-3,72.5,64.4,53.4,64.0,44.7,-99.9,100,81,1,30.09,30.02,4,1,0,0.16
2013-7-4,83.6,72.6,60.0,64.1,60.5,56.2,96,69,41,30.08,30.00,9,2,12,0.80
2013-7-5,85.4,76.0,65.3,67.2,63.5,-99.9,88,68,49,30.05,29.97,12,3,15,0.00
2013-7-6,86.1,75.3,65.9,70.9,64.8,61.2,100,71,52,30.02,29.93,9,2,15,2.36
2013-7-7,89.8,79.0,67.8,73.0,68.3,-99.9,93,74,52,29.97,29.88,8,2,0,1.74
2013-7-8,88.2,78.4,71.8,76.9,72.5,69.3,95,83,67,29.96,29.87,13,3,22,0.71
2013-7-9,85.7,76.7,69.5,76.0,72.7,68.3,97,88,70,29.98,29.80,17,2,17,1.67
2013-7-10,78.4,72.8,60.8,74.4,63.5,56.7,94,74,49,30.01,29.82,15,3,20,0.00
2013-7-11,84.3,69.4,54.6,73.2,49.7,-99.9,100,72,41,30.13,30.01,7,1,0,1.83
2013-7-12,84.5,71.3,55.6,69.7,49.7,-99.9,100,62,33,30.16,30.07,9,2,0,0.00
2013-7-13,85.2,73.7,60.7,72.9,54.0,-99.9,100,66,45,30.15,30.08,9,2,12,0.02
2013-7-14,88.4,77.3,60.4,70.8,56.2,-99.9,100,70,51,30.21,30.14,11,2,12,0.07
2013-7-15,92.0,80.0,67.1,76.7,70.8,65.3,95,75,52,30.26,30.18,10,1,0,1.04
2013-7-16,92.4,83.5,73.8,77.5,74.8,71.6,95,76,57,30.26,30.20,7,2,0,0.00
2013-7-17,93.7,83.7,75.5,77.3,74.9,73.0,93,76,53,30.27,30.13,8,1,0,0.00
2013-7-18,93.3,84.8,74.4,76.3,73.9,72.0,93,71,52,30.15,29.86,11,3,17,0.00
2013-7-19,91.1,83.2,73.3,74.3,70.8,64.5,77,67,52,29.86,29.71,13,4,18,0.00
2013-7-20,84.3,73.5,60.9,68.5,63.1,58.2,92,71,50,29.96,29.81,9,2,12,0.12
2013-7-21,81.6,67.2,59.1,69.1,8.6,-99.9,96,84,1,29.97,29.86,22,2,24,1.80
2013-7-22,86.6,73.2,62.1,72.5,9.2,-99.9,97,59,1,29.89,29.62,17,3,20,0.68
2013-7-23,74.7,68.3,55.4,73.4,-25.4,-99.9,100,68,1,30.00,29.70,15,4,16,0.00
2013-7-24,76.5,64.1,51.5,73.0,20.1,-99.9,100,71,1,30.10,30.00,6,0,0,0.00
2013-7-25,80.1,68.6,56.0,75.0,22.7,-99.9,100,72,1,30.08,29.95,11,2,0,0.07
2013-7-26,76.7,68.4,63.8,68.8,-39.0,-99.9,100,57,1,29.96,29.82,9,2,14,0.33
2013-7-27,64.1,54.6,49.9,50.5,-97.3,-99.9,90,66,1,29.95,29.87,13,4,16,0.01
2013-7-28,66.9,57.6,51.2,65.8,-38.4,-99.9,100,83,1,30.04,29.87,11,3,15,0.02
2013-7-29,76.4,64.0,52.6,67.6,-30.6,-99.9,100,65,1,30.16,30.03,7,2,0,0.00
2013-7-30,74.8,65.5,54.2,71.0,-15.7,-99.9,100,48,1,30.17,30.08,9,2,0,0.05
2013-7-31,79.6,69.2,62.0,68.3,-8.1,-99.9,100,54,1,30.08,29.95,15,2,21,0.95
2013-8-1,78.5,69.0,58.6,72.4,-26.2,-99.9,100,47,1,30.00,29.89,11,2,20,0.00
2013-8-2,80.4,71.1,62.9,74.2,11.3,-99.9,100,65,1,29.96,29.82,10,2,0,0.75
2013-8-3,77.5,65.6,50.7,64.3,-32.1,-99.9,100,62,1,30.13,29.96,12,2,17,0.00
2013-8-4,78.3,65.0,52.7,64.6,-17.9,-99.9,100,67,1,30.22,30.10,6,1,0,0.50
2013-8-5,72.7,65.4,60.4,72.1,-9.5,-99.9,100,82,1,30.11,29.85,10,2,13,0.07
2013-8-6,84.4,74.7,66.1,73.3,61.6,-99.9,100,80,1,29.87,29.77,7,2,0,0.05
2013-8-7,79.3,72.7,61.4,72.4,53.6,-99.9,97,78,1,29.97,29.73,13,3,16,0.00
2013-8-8,81.5,69.0,58.8,64.2,0.2,-99.9,100,73,1,30.05,29.97,7,1,0,0.59
2013-8-9,81.2,69.5,57.5,67.3,-6.8,-99.9,100,70,1,30.06,29.96,10,2,13,2.79
2013-8-10,75.2,64.6,53.0,73.2,17.4,-99.9,100,60,1,30.16,30.06,6,1,0,1.53
2013-8-11,74.6,63.4,53.3,69.9,-34.9,-99.9,100,46,1,30.14,30.02,5,1,0,0.12
2013-8-12,80.1,70.8,63.3,69.0,47.0,-99.9,100,77,1,30.03,29.90,9,2,15,2.22
2013-8-13,71.0,61.6,49.7,69.2,-48.8,-99.9,100,69,1,30.18,29.98,10,2,14,0.00
2013-8-14,74.3,61.0,46.0,70.1,4.0,-99.9,100,73,1,30.24,30.13,7,1,0,0.10
2013-8-15,77.5,66.4,58.1,72.3,-12.2,-99.9,100,77,45,30.15,30.08,4,0,0,4.50
2013-8-16,82.9,69.0,58.1,74.1,-24.7,-99.9,100,68,38,30.18,30.12,6,1,0,8.59
2013-8-17,83.6,68.1,52.9,74.4,-1.6,-99.9,100,51,1,30.24,30.15,10,1,0,3.21
2013-8-18,82.4,68.5,52.8,62.1,-2.3,-99.9,100,49,1,30.21,30.08,8,1,12,3.75
2013-8-19,83.4,69.9,55.1,73.0,22.6,-99.9,100,72,1,30.09,30.01,13,1,16,2.01
2013-8-20,87.3,76.5,66.9,69.0,10.5,-99.9,100,68,1,30.06,29.97,12,3,17,1.77
2013-8-21,90.1,80.0,69.4,72.1,64.4,-99.9,100,70,52,30.00,29.89,15,4,21,2.26
2013-8-22,80.0,71.7,67.7,72.7,-21.3,-99.9,98,66,1,30.12,29.97,18,1,27,2.66
2013-8-23,83.4,69.9,54.3,77.2,-33.5,-99.9,100,43,1,30.18,30.11,8,2,0,4.25
2013-8-24,83.8,71.5,53.6,77.6,-12.4,-99.9,100,55,1,30.24,30.13,8,2,12,1.82
2013-8-25,89.1,79.3,70.0,73.6,16.6,-99.9,100,61,1,30.18,30.06,11,4,17,2.93
2013-8-26,91.6,81.2,73.2,77.3,71.6,66.7,82,73,60,30.11,29.93,10,3,13,4.29
2013-8-27,94.3,84.2,76.4,76.9,73.8,70.4,85,72,55,29.94,29.77,11,3,17,2.58
2013-8-28,86.4,77.0,69.4,75.0,70.4,-99.9,97,84,1,30.04,29.81,6,0,0,6.37
2013-8-29,87.4,75.7,62.4,76.8,56.1,-99.9,100,77,1,30.08,29.95,10,2,12,4.97
2013-8-30,91.3,79.2,71.1,79.2,72.5,66.7,93,81,64,29.95,29.74,12,2,13,2.72
2013-8-31,83.1,72.4,64.9,69.9,64.0,-99.9,96,80,1,29.87,29.77,8,1,0,0.22
2013-9-1,84.1,71.8,61.3,76.5,20.4,-99.9,100,73,1,29.84,29.70,11,2,14,0.47
2013-9-2,68.1,63.0,51.2,61.0,8.2,-99.9,100,76,1,30.02,29.83,9,2,0,0.00
2013-9-3,69.4,58.8,46.2,56.2,-40.3,-99.9,100,79,1,30.13,30.02,6,1,12,0.00
2013-9-4,83.8,67.1,50.9,67.1,-9.8,-99.9,100,52,1,30.14,30.06,8,1,0,0.00
2013-9-5,78.2,67.1,58.4,62.5,-40.0,-99.9,100,57,1,30.25,30.13,9,2,0,1.73
2013-9-6,87.1,70.0,52.2,72.2,15.8,-99.9,100,72,52,30.21,29.96,10,2,13,0.90
2013-9-7,89.2,78.1,69.1,73.5,26.8,-99.9,100,77,58,29.97,29.85,9,2,13,0.61
2013-9-8,71.9,67.6,62.2,68.6,-33.8,-99.9,93,52,1,30.06,29.94,7,1,14,0.00
2013-9-9,93.0,78.2,62.3,77.5,11.3,-99.9,98,51,1,29.97,29.74,13,3,14,0.25
2013-9-10,95.0,84.6,74.9,70.7,65.9,62.8,71,55,35,29.93,29.78,18,4,21,1.76
2013-9-11,81.9,72.9,66.0,73.5,46.5,-99.9,100,77,1,30.06,29.93,8,1,12,2.52
2013-9-12,68.9,63.8,56.2,66.9,-40.2,-99.9,100,89,1,30.16,29.97,15,4,19,0.00
2013-9-13,57.9,53.4,43.7,56.1,-46.6,-99.9,100,95,75,30.27,30.16,10,1,13,0.00
2013-9-14,71.7,57.5,40.3,71.3,-47.3,-99.9,100,72,1,30.21,30.01,8,2,0,0.00
2013-9-15,62.1,57.0,54.1,57.0,-76.4,-99.9,100,40,1,30.25,29.98,6,1,0,0.73
2013-9-16,66.9,54.6,39.5,66.3,-34.9,-99.9,100,71,1,30.44,30.25,8,1,0,0.00
2013-9-17,70.7,55.8,39.3,68.6,-9.3,-99.9,100,81,1,30.38,30.11,11,2,16,0.05
2013-9-18,76.5,66.7,58.6,74.4,-5.2,-99.9,100,69,1,30.11,29.87,12,4,17,0.15
2013-9-19,87.8,72.7,66.6,74.8,-32.2,-99.9,95,43,1,29.88,29.68,12,3,27,2.69
2013-9-20,68.9,65.2,56.4,66.0,-87.7,-99.9,100,50,1,29.85,29.70,11,3,16,0.01
2013-9-21,59.1,53.3,45.3,58.7,-36.9,-99.9,100,76,1,29.98,29.84,12,3,18,0.00
2013-9-22,65.8,52.1,39.1,64.2,-33.0,-99.9,100,86,1,30.12,29.98,5,1,0,0.00
2013-9-23,68.9,54.9,41.5,67.8,-49.1,-99.9,100,69,1,30.15,30.05,9,2,12,0.01
2013-9-24,73.2,57.4,42.6,70.8,-14.6,-99.9,100,72,1,30.07,29.96,8,1,12,0.00
2013-9-25,72.6,57.7,43.7,57.8,-16.3,-99.9,100,74,1,30.02,29.95,7,1,12,0.27
2013-9-26,76.8,58.7,42.3,58.3,-2.3,-99.9,100,58,1,30.09,30.00,10,2,12,0.01
2013-9-27,81.6,64.8,47.5,57.7,-15.4,-99.9,100,57,1,30.13,30.01,9,3,18,0.03
2013-9-28,80.5,65.4,54.3,73.4,15.9,-99.9,100,77,54,30.03,29.81,17,5,26,0.38
2013-9-29,71.2,57.6,44.4,66.5,-34.2,-99.9,100,61,1,30.07,29.97,5,1,0,0.43
2013-9-30,73.3,59.6,45.8,53.0,-11.2,-99.9,100,53,1,30.00,29.80,14,3,14,0.00
2013-10-1,79.8,66.9,56.7,70.7,25.7,-99.9,100,62,1,29.96,29.82,12,3,17,0.00
2013-10-2,77.9,62.0,42.9,68.5,-1.0,-99.9,100,53,1,30.12,29.96,10,2,13,0.00
2013-10-3,76.3,66.6,58.4,67.9,38.0,-99.9,100,79,1,29.98,29.81,11,2,14,10.19
2013-10-4,67.1,64.5,61.2,65.3,63.4,60.0,98,96,93,30.00,29.85,6,1,0,0.19
2013-10-5,73.9,65.4,59.1,71.1,54.4,-99.9,99,96,1,29.94,29.74,8,2,13,0.28
2013-10-6,58.4,51.3,41.8,58.0,-53.8,-99.9,100,69,1,29.77,29.67,8,1,0,0.10
2013-10-7,66.7,52.4,41.0,58.4,-61.4,-99.9,100,60,1,30.10,29.73,11,2,15,0.02
2013-10-8,75.9,57.4,38.3,65.3,20.8,-99.9,100,73,37,30.18,30.09,9,2,14,0.00
2013-10-9,73.6,60.3,48.8,63.2,-33.1,-99.9,100,70,1,30.20,30.11,10,2,14,0.66
2013-10-10,74.6,57.4,39.3,55.3,11.9,-99.9,100,76,41,30.18,30.04,8,2,0,0.00
2013-10-11,75.2,62.3,47.9,64.1,-11.1,-99.9,100,55,1,30.05,29.90,16,4,19,0.00
2013-10-12,69.0,61.2,42.2,60.9,44.3,-99.9,100,73,44,30.16,29.88,10,3,16,0.05
2013-10-13,60.9,46.6,35.8,57.4,-26.6,-99.9,100,75,1,30.45,30.16,13,2,16,0.00
2013-10-14,63.5,47.1,31.7,63.4,-28.8,-99.9,100,72,1,30.47,30.15,8,1,13,0.00
2013-10-15,60.6,52.8,47.6,58.2,-76.4,-99.9,100,49,1,30.15,29.74,11,4,17,0.24
2013-10-16,52.2,49.9,46.8,49.6,-80.1,-99.9,96,62,1,29.96,29.78,12,2,14,0.02
2013-10-17,54.7,46.2,36.9,48.8,-72.6,-99.9,100,54,1,29.94,29.83,6,0,0,0.11
2013-10-18,48.0,43.8,38.0,46.2,-17.0,-99.9,100,82,1,29.97,29.83,11,2,14,0.00
2013-10-19,49.4,41.4,32.2,48.5,-22.1,-99.9,100,76,1,29.94,29.75,8,1,23,0.04
2013-10-20,50.1,41.4,29.9,46.9,8.9,-99.9,98,82,1,29.89,29.73,9,2,14,0.16
2013-10-21,47.3,38.4,30.1,43.9,13.7,-99.9,100,72,1,29.98,29.77,11,3,18,0.00
2013-10-22,46.1,35.8,26.0,44.5,-16.5,-99.9,100,81,1,30.01,29.94,5,2,0,0.00
2013-10-23,42.3,34.1,25.4,41.6,-5.9,-99.9,100,80,1,30.07,30.00,7,1,13,0.00
2013-10-24,42.9,35.2,27.7,39.6,-16.2,-99.9,100,79,52,30.34,30.07,11,2,15,0.00
2013-10-25,51.0,40.3,27.6,49.8,1.9,-99.9,100,67,1,30.41,29.93,15,4,22,0.00
2013-10-26,50.0,45.5,38.5,48.4,13.1,-99.9,100,60,46,30.09,29.81,16,5,24,0.00
2013-10-27,54.7,42.0,26.5,54.7,3.7,-99.9,100,68,40,30.08,29.92,12,2,17,0.00
2013-10-28,43.4,39.8,34.7,40.5,-15.7,-99.9,100,70,1,30.45,30.06,6,1,12,0.00
2013-10-29,54.5,43.6,36.2,43.4,-9.2,-99.9,100,77,1,30.44,30.15,7,1,0,0.00
2013-10-30,55.7,50.5,45.4,54.2,6.7,-99.9,98,86,1,30.15,29.75,11,2,14,0.00
2013-10-31,61.9,55.5,43.1,60.9,4.7,-99.9,98,81,1,29.75,29.27,11,3,19,0.67
2013-11-1,45.9,43.0,39.3,43.7,40.2,-99.9,96,92,88,29.78,29.34,11,2,16,0.04
2013-11-2,44.6,38.8,29.7,44.0,33.4,-99.9,100,90,1,30.19,29.77,9,2,15,0.01
2013-11-3,50.5,37.7,24.2,39.4,28.8,-99.9,98,82,1,30.34,30.19,13,2,16,0.01
2013-11-4,52.3,48.0,41.8,52.1,18.6,-99.9,100,79,68,30.24,30.05,17,5,22,0.00
2013-11-5,54.2,50.5,47.1,51.5,8.0,-99.9,97,75,1,30.27,29.86,15,2,23,0.45
2013-11-6,54.9,42.5,30.9,54.1,17.7,-99.9,100,81,1,30.19,29.70,17,5,23,0.28
2013-11-7,39.7,33.9,28.0,39.6,4.8,-99.9,100,79,1,30.28,30.19,11,2,16,0.00
2013-11-8,45.9,36.3,22.5,43.6,19.5,-99.9,100,79,1,30.33,29.83,15,4,22,0.00
2013-11-9,52.0,46.3,38.1,50.4,23.7,-99.9,100,71,56,30.11,29.78,18,7,26,0.00
2013-11-10,47.7,41.8,36.9,45.7,16.2,-99.9,100,68,51,30.36,30.11,13,4,17,0.00
2013-11-11,43.9,32.2,20.8,34.4,25.2,-99.9,95,77,67,30.61,30.08,14,4,19,0.04
2013-11-12,29.3,22.5,16.8,22.3,11.5,-99.9,100,73,54,30.78,30.61,10,3,12,0.00
2013-11-13,42.0,30.9,18.3,41.3,7.8,-99.9,100,61,39,30.62,30.11,18,6,24,0.00
2013-11-14,47.3,39.7,31.2,41.7,10.4,-99.9,100,64,51,30.11,29.91,14,4,17,0.01
2013-11-15,55.3,43.7,34.3,55.2,10.0,-99.9,100,72,1,29.96,29.89,9,2,0,0.00
2013-11-16,58.1,48.5,38.2,55.4,36.9,-99.9,97,91,1,29.90,29.49,17,7,25,0.14
2013-11-17,57.9,50.1,38.8,55.6,22.3,-99.9,100,85,1,29.68,29.16,17,5,24,1.07
2013-11-18,38.5,32.8,25.3,32.8,26.2,21.2,85,77,64,30.31,29.69,20,6,25,0.00
2013-11-19,39.7,29.9,17.1,38.6,-6.5,-99.9,100,84,1,30.41,30.28,9,2,14,0.00
2013-11-20,39.6,35.9,32.6,39.5,-39.0,-99.9,100,71,1,30.29,30.12,17,5,23,0.03
2013-11-21,43.0,39.2,36.3,39.4,-23.5,-99.9,96,72,1,30.29,30.14,9,2,0,0.00
2013-11-22,37.3,30.3,23.3,35.2,-5.2,-99.9,100,67,1,30.52,30.28,14,4,18,0.00
2013-11-23,24.9,16.9,9.6,18.0,7.0,-99.9,86,68,1,30.80,30.46,18,6,24,0.00
2013-11-24,27.1,17.4,6.4,10.2,6.1,3.0,87,63,37,30.77,30.32,18,4,22,0.00
2013-11-25,30.2,27.5,22.0,26.5,23.5,9.0,92,85,56,30.32,30.06,12,4,17,0.00
2013-11-26,31.8,24.8,12.2,26.7,16.0,-99.9,100,73,58,30.28,30.06,15,5,24,0.00
2013-11-27,25.5,17.8,9.5,14.5,10.0,4.3,84,72,56,30.35,30.26,11,3,15,0.00
2013-11-28,29.3,23.9,16.8,18.3,15.2,11.7,80,69,60,30.57,30.21,10,2,0,0.00
2013-11-29,34.1,21.8,7.3,25.6,-21.1,-99.9,100,81,1,30.68,30.40,7,2,14,0.00
2013-11-30,43.2,34.5,27.1,42.9,-51.8,-99.9,100,72,1,30.40,30.08,8,2,14,0.00
2013-12-1,40.3,32.3,25.5,37.7,-29.1,-99.9,100,78,1,30.19,30.02,6,1,0,0.00
2013-12-2,39.1,32.4,22.1,37.6,-49.4,-99.9,100,62,1,30.02,29.78,10,2,19,0.00
2013-12-3,39.0,36.4,33.6,36.4,-91.9,-99.9,98,27,1,29.78,29.69,11,2,15,0.25
2013-12-4,49.3,40.2,33.9,49.0,-31.2,-99.9,99,61,1,29.79,29.47,14,2,21,0.13
2013-12-5,33.8,20.7,13.2,30.2,-5.2,-99.9,100,72,1,30.34,29.65,14,5,21,0.00
2013-12-6,16.1,10.1,6.2,7.6,3.7,1.0,82,75,60,30.64,30.32,11,4,16,0.00
2013-12-7,14.3,6.0,0.0,3.1,-0.1,-3.1,86,76,55,30.79,30.64,9,2,13,0.00
2013-12-8,19.8,14.3,6.0,17.9,9.6,-0.6,92,81,66,30.70,30.03,6,1,0,0.00
2013-12-9,16.4,8.7,-4.4,13.3,-2.0,-99.9,91,77,1,30.26,30.01,14,3,18,0.00
2013-12-10,17.3,8.1,-5.2,10.1,2.1,-8.2,86,76,62,30.34,29.99,13,4,18,0.00
2013-12-11,13.4,5.7,-3.6,10.6,-0.4,-9.0,89,74,56,30.61,30.33,15,3,16,0.00
2013-12-12,18.2,9.6,-4.1,17.0,-26.4,-99.9,100,70,1,30.58,30.26,13,3,15,0.00
2013-12-13,24.8,17.8,13.2,18.2,-60.4,-99.9,100,55,1,30.27,30.21,7,1,12,0.00
2013-12-14,23.1,19.8,17.0,19.8,-46.9,-99.9,91,65,1,30.24,29.99,10,2,13,0.00
2013-12-15,19.7,9.7,2.3,16.2,-7.3,-99.9,100,72,1,30.22,29.99,15,5,18,0.00
2013-12-16,13.6,6.3,-5.0,11.7,-0.3,-99.9,92,79,1,30.24,30.09,7,1,0,0.00
2013-12-17,33.8,24.2,13.7,26.2,5.0,-99.9,94,75,1,30.12,29.97,11,4,17,0.00
2013-12-18,34.7,23.0,10.3,27.4,10.3,-99.9,100,75,1,30.16,29.81,15,4,19,0.00
2013-12-19,32.4,26.0,20.4,27.8,20.2,-99.9,96,87,1,30.04,29.83,7,1,13,0.00
2013-12-20,23.9,21.9,20.1,21.7,20.2,18.4,95,93,91,29.95,29.87,8,2,14,0.00
2013-12-21,26.2,24.2,22.0,25.2,23.0,20.8,96,95,95,29.95,29.78,9,2,13,0.00
2013-12-22,26.1,22.6,15.0,24.6,21.2,13.3,95,94,93,30.17,29.76,12,3,17,0.00
2013-12-23,19.4,9.7,-2.0,18.0,6.6,-4.6,95,87,78,30.51,30.17,9,2,0,0.00
2013-12-24,12.6,1.6,-11.0,7.2,-19.8,-99.9,100,84,1,30.64,30.39,9,2,0,0.00
2013-12-25,22.7,18.9,10.2,20.5,-23.1,-99.9,92,78,1,30.38,30.13,9,3,15,0.00
2013-12-26,25.0,19.4,11.5,21.0,-32.7,-99.9,92,67,1,30.29,30.15,7,1,15,0.00
2013-12-27,36.3,26.6,8.9,30.6,-32.9,-99.9,96,63,1,30.30,30.04,11,2,15,0.01
2013-12-28,42.2,35.2,25.9,34.0,19.3,-99.9,95,79,1,30.08,29.77,12,4,16,0.24
2013-12-29,38.5,18.4,-4.7,31.8,13.8,-10.0,93,81,73,30.31,29.75,19,6,23,0.00
2013-12-30,2.3,-4.0,-13.6,-2.0,-9.1,-15.7,86,75,57,30.42,30.30,5,1,0,0.00
2013-12-31,6.5,2.2,-3.6,2.7,-1.7,-6.0,87,83,71,30.46,30.29,6,1,0,0.00
2014-1-1,7.6,3.7,-1.2,0.9,-2.6,-7.1,78,74,69,30.49,30.40,9,3,13,0.00
2014-1-2,10.7,4.3,-8.1,2.6,-1.1,-10.0,86,77,67,30.52,30.36,13,4,15,0.00